FENGYUN 1C DEB, 30081

Orbit data source: Space-Track

FENGYUN 1C DEB, 30081 is space debris in SSO originally from a launch on Mon, 10 May 1999 UTC launched from the Taiyaun Space Center, China (TSC). Fengyun 1C debris stems from the Chinese weather satellite Fengyun-1C, which was intentionally destroyed by a Chinese anti-satellite missile in 2007. This event dramatically increased the amount of space debris, with thousands of trackable fragments posing hazards to satellites and human spaceflight. The Fengyun 1C debris cloud has become a focal point in discussions about space sustainability and the need for international regulations to prevent the creation of new debris.

Loading next visibility...
Identifier
30081, 1999-025QJ
Orbit
SSO
Country
Flag of CNCN / PRC
Related business
Manufacturer
Unknown
Mission
Spacecraft
Bus & Motor
Unknown
Mass
Unknown
Launch date (UTC)
1999-05-10 (27 years ago)
Launch vehicle
Unknown
Launch site
Taiyaun Space Center, China (TSC)
Object type
Payload
Rocket body
Debris
Shape & HBR
Unknown shape, 0.1 m
Radar Cross Section
Medium (>0.1 m² and <1 m²)

Expand to show TLE details & history
Last TLE update: 1 day ago

TLE from 1 day ago
0 FENGYUN 1C DEB
1 30081U 99025QJ  26237.92903007  .00000477  00000-0  35458-3 0  9993
2 30081  98.9363 232.4590 0076296 352.0024  36.9833 13.98506288999350
Epoch: 2026-08-25T22:17Z
TLE epoch observation values (Epoch: 2026-08-25T22:17:48.198Z)
Latitude
29.17111°
Longitude
-81.19025°
Altitude
858.355 km
Speed
7.448 km/s
True Right ascension
15h 09m 47s
True Declination
29° 01' 37"
Sunlit
Object was in daylight at epoch
Visualization orbit readout
Latitude
Unknown
Longitude
Unknown
Altitude
Unknown
Speed
Unknown
Apparent Right ascension
Unknown
Apparent Declination
Unknown
Sunlit
N/A
Visualization observer readout
Local Sidereal Time
14:42:09
Azimuth
Unknown
Elevation
Unknown
Doppler factor
Unknown
Orbital elements
Apogee altitude
951.67 km
Perigee altitude
840.67 km
Semi-major axis
7,274.307 km
Eccentricity
0.00763
Inclination
98.9363°
RAAN
232.459°
Arg. of periapsis
352.0024°
True anomaly
37.51328°
Mean anomaly
36.9833°
Eccentric anomaly
37.24789°
Mean motion
3.49829 °/min
Orbital period
102.91 mins
BSTAR
0.00035458
Loading maneuver chart data...
Computing Atmospheric mass density...

Documentation

Showing up to 5 results
|